DW8455 Weather Reports


Display with metric or nautical units.
time (UTC)temp
F
wind
direction
speed
MPH
gust
MPH
rain 1hr
in
rain 24hr
in
rain mn
in
humidity
%
barometer
mb
20260504151016 48 315 4.0 8.0 0.00 0.00 0.00 52 1019.5
20260504141017 45 158 4.0 8.0 0.00 0.00 0.00 57 1021.2
20260504081016 46 135 3.0 6.0 0.00 0.00 0.00 56 1017.7
20260504050017 52 135 3.0 5.0 0.00 0.00 0.00 44 1016.5
20260504045018 52 158 4.0 6.0 0.00 0.00 0.00 43 1016.5
20260504044017 53 158 4.0 6.0 0.00 0.00 0.00 42 1016.0
20260504043038 53 113 2.0 3.0 0.00 0.00 0.00 43 1016.1
20260504042017 53 68 2.0 7.0 0.00 0.00 0.00 42 1015.9
20260504041018 52 158 2.0 4.0 0.00 0.00 0.00 42 1015.2
20260504040017 52 135 1.0 2.0 0.00 0.00 0.00 43 1015.0
20260504035017 53 113 4.0 7.0 0.00 0.00 0.00 42 1015.1
20260504034017 54 68 5.0 8.0 0.00 0.00 0.00 42 1014.6
20260504033017 55 23 5.0 8.0 0.00 0.00 0.00 40 1014.8
20260504032017 55 23 4.0 6.0 0.00 0.00 0.00 39 1014.6
20260504031037 56 45 1.0 4.0 0.00 0.00 0.00 40 1014.2
20260504030017 56 45 1.0 4.0 0.00 0.00 0.00 39 1014.1
20260504025017 56 90 7.0 9.0 0.00 0.00 0.00 41 1014.0
20260504024017 57 90 8.0 9.0 0.00 0.00 0.00 40 1013.2
20260504023017 60 90 7.0 8.0 0.00 0.00 0.00 37 1013.6
20260504022017 64 338 3.0 4.0 0.00 0.00 0.00 33 1014.3
20260504021017 66 338 2.0 3.0 0.00 0.00 0.00 29 1014.3
20260504020017 68 338 2.0 3.0 0.00 0.00 0.00 27 1014.7
20260504015017 69 338 2.0 3.0 0.00 0.00 0.00 24 1015.2
20260504014018 69 338 5.0 6.0 0.00 0.00 0.00 23 1015.5
20260504013017 69 315 5.0 9.0 0.00 0.00 0.00 27 1015.6
20260504012017 70 338 7.0 10.0 0.00 0.00 0.00 23 1015.7
20260504011017 70 338 6.0 9.0 0.00 0.00 0.00 23 1015.8
20260504010018 70 315 9.0 13.0 0.00 0.00 0.00 23 1015.9
20260504005037 70 315 11.0 17.0 0.00 0.00 0.00 22 1016.0
20260504004018 70 338 11.0 16.0 0.00 0.00 0.00 22 1015.7
20260504003017 71 315 11.0 18.0 0.00 0.00 0.00 22 1016.1
20260504002017 71 338 11.0 16.0 0.00 0.00 0.00 21 1016.2
20260504001017 71 315 13.0 18.0 0.00 0.00 0.00 22 1016.2
20260504000037 71 293 13.0 19.0 0.00 0.00 0.00 23 1016.4
20260503235037 71 293 10.0 15.0 0.00 0.00 0.00 25 1016.5
20260503234017 72 293 15.0 21.0 0.00 0.00 0.00 23 1016.5
20260503233017 71 293 14.0 19.0 0.00 0.00 0.00 22 1016.5
20260503232017 72 315 13.0 18.0 0.00 0.00 0.00 25 1016.7
20260503231016 72 315 14.0 21.0 0.00 0.00 0.00 22 1017.1
20260503230017 72 315 10.0 15.0 0.00 0.00 0.00 23 1017.3
20260503225017 72 293 9.0 15.0 0.00 0.00 0.00 24 1017.4
20260503224017 72 293 10.0 16.0 0.00 0.00 0.00 24 1017.4
20260503223057 71 315 16.0 23.0 0.00 0.00 0.00 26 1017.6
20260503222017 71 293 16.0 24.0 0.00 0.00 0.00 26 1017.8
20260503221037 71 315 9.0 15.0 0.00 0.00 0.00 26 1018.3
20260503220017 71 315 13.0 22.0 0.00 0.00 0.00 27 1018.5
20260503215017 71 315 10.0 18.0 0.00 0.00 0.00 28 1018.8
20260503214017 71 315 13.0 23.0 0.00 0.00 0.00 27 1018.8
20260503213017 71 315 11.0 21.0 0.00 0.00 0.00 26 1019.1
20260503212017 70 270 8.0 17.0 0.00 0.00 0.00 27 1018.9
20260503211016 70 315 7.0 17.0 0.00 0.00 0.00 27 1019.1
20260503210017 70 338 6.0 14.0 0.00 0.00 0.00 26 1019.2
20260503205017 70 0 8.0 16.0 0.00 0.00 0.00 27 1019.4
20260503204016 70 23 8.0 12.0 0.00 0.00 0.00 27 1020.2
20260503203017 70 338 11.0 22.0 0.00 0.00 0.00 26 1020.3
20260503202017 69 0 13.0 18.0 0.00 0.00 0.00 27 1020.1
20260503201017 69 23 8.0 17.0 0.00 0.00 0.00 27 1020.2
20260503200016 69 0 13.0 19.0 0.00 0.00 0.00 28 1020.4
20260503195017 69 0 13.0 20.0 0.00 0.00 0.00 28 1020.5
20260503194017 67 338 13.0 19.0 0.00 0.00 0.00 27 1020.2
20260503193017 69 0 15.0 21.0 0.00 0.00 0.00 27 1020.2
20260503192017 66 338 9.0 17.0 0.00 0.00 0.00 29 1020.1
20260503191016 67 90 4.0 9.0 0.00 0.00 0.00 27 1020.5
20260503190016 68 68 7.0 11.0 0.00 0.00 0.00 31 1021.1
20260503185017 67 0 4.0 12.0 0.00 0.00 0.00 33 1020.9
20260503184016 67 23 6.0 17.0 0.00 0.00 0.00 30 1021.3
20260503183017 68 0 7.0 14.0 0.00 0.00 0.00 28 1021.7
20260503182016 69 45 5.0 10.0 0.00 0.00 0.00 33 1022.0
20260503181017 68 90 5.0 10.0 0.00 0.00 0.00 33 1022.1
20260503180016 65 270 2.0 4.0 0.00 0.00 0.00 38 1022.0
20260503175037 65 23 3.0 5.0 0.00 0.00 0.00 39 1021.8
20260503174016 63 0.0 0.0 0.00 0.00 0.00 42 1022.3
20260503173016 61 135 1.0 3.0 0.00 0.00 0.00 44 1022.1
20260503172016 59 270 2.0 5.0 0.00 0.00 0.00 46 1021.9
20260503171016 58 270 2.0 4.0 0.00 0.00 0.00 45 1022.1